Find Starlink 4283

NORAD ID: 53016 Int'l Des: 2022-076 Owner: SPXS Country: US Constellation: starlink operational
LEOCIRCULAR

Live Position

Loading 3D Globe...

About Starlink 4283

Description loading...

Upcoming Passes

Passes for default location (London). Set your location on the main map for personalized predictions.

Altitude History

Loading altitude history...

Two-Line Element Set

1 53016U 22076AG 26106.71946814 .00000732 00000-0 64092-4 0 9994
2 53016 53.2171 273.3973 0001198 92.2882 267.8247 15.08839516208721
Epoch: Apr 16, 2026 • Age: 10 hours

Current Status

Altitude 545.0 km
Velocity 7.60 km/s
Sub-Earth Point 51.07°N, 86.17°E
Launch Date Jul 7, 2022
Age 3.7 years
Type internet

Technical Details

Classification Payload
Mass 297.00 kg
Dry Mass 275.00 kg
Total Mass 297.00 kg
Length 0.20 m
Diameter 2.80 m
Span 9.00 m
Shape Box + pan
Manufacturer SPXS
Bus Type Starlink
Phase Status In Orbit
Owner/State SPXS/US

Most Searched